[[{"header":{"parameterUnit":"m.s-1","parameterCategory":2,"la1":30.2991,"la2":30.254,"lo1":-89.0895,"lo2":-89.0444,"dy":0.0017,"dx":0.0017,"nx":28,"ny":28,"refTime":"2026-02-10T03:00:00:Z","depth":"0","parameterNumber":2,"parameterNumberName":"U-component_of_CURRENTS"},"data":[0,0,0,0,0,0,0,0,0,0,0,0,0,0,0,0,0,0,0,0,0,0,0,0,0,0,0,0,0,0,0,0,0,0,0,0,0,0,0,0,0,0,0,0,0,0,0,0,0,0,0,0,0,0,0,0,0,0,0.1776,0.1775,0,0.1631,0.1629,0.1627,0.1473,0.1471,0.147,0.1468,0.1416,0.1416,0.1416,0,0,0,0,0,0,0,0,0,0,0,0,0,0.1876,0.1874,0.1776,0.1775,0.1774,0.1631,0.1629,0.1626,0.1473,0.1471,0.1469,0.1467,0.1416,0.1416,0.1416,0,0,0,0,0,0,0,0,0,0,0,0,0,0.1786,0.1874,0.1776,0.1685,0.1676,0.1632,0.1628,0.1625,0.1473,0.1471,0.1469,0.1466,0.1416,0.1416,0.1416,0.1464,0,0,0.1416,0.1417,0,0,0,0,0,0,0,0,0.1791,0.1781,0.17,0.1691,0.1681,0.1573,0.1645,0.1578,0.1474,0.1543,0.1468,0.1465,0.1483,0.1478,0.1445,0.1461,0.1459,0.1416,0.1417,0.1417,0.1417,0,0,0,0,0,0,0,0.1798,0.1787,0.1712,0.1699,0.1687,0.1636,0.162,0.163,0.1525,0.1537,0.1527,0.1522,0.1477,0.1445,0.1443,0.1458,0.1416,0.1417,0.1417,0.1417,0.1548,0.1551,0,0,0,0,0,0,0.1833,0.1793,0.1717,0.1708,0.1739,0.1637,0.1619,0.1605,0.1522,0.1509,0.1524,0.1516,0.1446,0.1443,0.1441,0.1555,0.1417,0.1417,0.1417,0.1544,0.1548,0.1552,0,0,0,0,0,0,0.1836,0.1828,0.1723,0.1753,0.1737,0.1639,0.1623,0.1603,0.1569,0.1513,0.1499,0.1511,0.1444,0.1441,0.1473,0.155,0.1417,0.1417,0.154,0.1545,0.155,0.1745,0,0,0,0,0,0,0.1839,0.1829,0.1843,0.1755,0.1737,0.1726,0.1626,0.1602,0.1573,0.1559,0.1499,0.149,0.1442,0.1474,0.1473,0.1548,0.1417,0.1536,0.1543,0.1549,0.1735,0.1757,0.1775,0,0,0,0,0,0.1843,0.1898,0.1844,0.1836,0.1754,0.1729,0.1715,0.1632,0.1575,0.1586,0.1545,0.1492,0.1513,0.1477,0.1476,0.1552,0.1533,0.1541,0.1548,0.1726,0.1752,0.1775,0,0,0,0,0,0,0.198,0.1884,0.1825,0.1853,0.18,0.1706,0.1723,0.1651,0.162,0.1616,0.1537,0.153,0.1588,0.1547,0.1508,0.1608,0.1515,0.1523,0.165,0.1675,0.1695,0.1707,0.1417,0,0,0,0,0,0.201,0.1997,0.1912,0.1933,0.1919,0.1816,0.1797,0.1738,0.1695,0.1674,0.163,0.1606,0.1621,0.1627,0.1625,0.1686,0.1659,0.1733,0.1754,0.1771,0.1781,0.1832,0.1859,0.1577,0.1577,0.1577,0,0,0.2067,0.2017,0.201,0.1958,0.1908,0.1907,0.1798,0.1794,0.1795,0.1686,0.1702,0.1681,0.1653,0.1716,0.1738,0.169,0.1837,0.1781,0.1797,0.1796,0.1843,0.1871,0.1895,0.1582,0.1581,0.1581,0,0,0.217,0.2135,0.2143,0.2114,0.2058,0.2005,0.201,0.1929,0.1902,0.1918,0.1851,0.188,0.1872,0.1877,0.1877,0.2015,0.1945,0.2012,0.2127,0.2178,0.2202,0.2222,0.2222,0.224,0.2021,0.2021,0.2021,0,0.2233,0.2225,0.2155,0.2164,0.2153,0.2056,0.2075,0.2056,0.1995,0.1999,0.1956,0.1969,0.1957,0.2033,0.2082,0.2066,0.2055,0.2037,0.2206,0.2225,0.2243,0.2237,0.2256,0.2031,0.203,0.2029,0.2028,0,0.2317,0.232,0.2347,0.2298,0.2294,0.231,0.2263,0.2267,0.2224,0.2187,0.2242,0.2221,0.2217,0.2241,0.2207,0.233,0.2269,0.2229,0.2145,0.2283,0.2268,0.2284,0.2046,0.2043,0.2039,0.2037,0,0,0.2401,0.2393,0.2395,0.2386,0.2361,0.2356,0.241,0.2407,0.2418,0.2416,0.2443,0.2504,0.2463,0.2462,0.243,0.2488,0.2617,0.2423,0.2421,0.2425,0.2699,0.2515,0.2512,0.2608,0.2611,0.2615,0.2638,0,0.2464,0.2507,0.2485,0.2529,0.2544,0.2504,0.2543,0.2545,0.2533,0.255,0.257,0.2585,0.2556,0.2552,0.2622,0.2607,0.2667,0.2612,0.2562,0.256,0.2382,0.2528,0.236,0.2354,0.2652,0.2655,0.2656,0,0.2522,0.2539,0.2597,0.2604,0.2607,0.2627,0.2645,0.2662,0.2694,0.2688,0.2726,0.2702,0.279,0.2731,0.2817,0.2779,0.2768,0.2759,0.2759,0.2526,0.2405,0.2265,0.237,0.2246,0.2679,0.2677,0.2675,0,0.2574,0.2606,0.2649,0.2656,0.2669,0.2692,0.2688,0.2709,0.2725,0.2763,0.2774,0.2845,0.2858,0.2903,0.2875,0.2862,0.2935,0.2903,0.2729,0.2713,0.2527,0.2487,0.2505,0.2985,0.2985,0.2985,0.2985,0,0.2629,0.2662,0.2673,0.2697,0.2744,0.2727,0.2768,0.2774,0.2793,0.282,0.2834,0.2866,0.2907,0.2929,0.2922,0.2856,0.2973,0.2774,0.2728,0.2586,0.2553,0.2395,0.2369,0.2985,0.2985,0.2985,0.2985,0,0.2677,0.269,0.2739,0.2762,0.2771,0.2797,0.2804,0.2827,0.2829,0.2865,0.2881,0.2914,0.2927,0.292,0.296,0.2875,0.2736,0.2792,0.2587,0.2515,0.2206,0.2196,0.2099,0.2066,0.2622,0.2618,0.2615,0,0.2703,0.2735,0.2783,0.2811,0.2823,0.2849,0.2868,0.286,0.2873,0.2887,0.2912,0.2922,0.2916,0.2861,0.2725,0.264,0.2598,0.2403,0.2357,0.2185,0.2144,0.2096,0.2075,0.2197,0.2191,0.2186,0.2181,0,0.2756,0.2775,0.2816,0.2871,0.2901,0.2919,0.293,0.2944,0.2925,0.293,0.2918,0.2909,0.2792,0.2605,0.2433,0.2361,0.2239,0.2283,0.2197,0.1892,0.1756,0.1698,0.2157,0.2133,0.2138,0.2141,0.2144,0.2146,0.2797,0.2834,0.2884,0.2928,0.2953,0.2957,0.2945,0.294,0.293,0.2845,0.289,0.2748,0.2488,0.2216,0.2121,0.1744,0.189,0.1629,0.1657,0.1641,0.1535,0.1846,0.1701,0.1703,0.1705,0.1707,0.1709,0,0.2849,0.2882,0.2929,0.2965,0.2958,0.2966,0.2959,0.2896,0.2839,0.2727,0.2657,0.2284,0.2007,0.1744,0.1302,0.1134,0.1133,0.1076,0.102,0.1059,0.14,0.1302,0.0952,0.0952,0.0952,0.0952,0.0952,0.0953,0.2891,0.2939,0.2951,0.295,0.2945,0.2873,0.2841,0.2745,0.2627,0.2311,0.2022,0.1869,0.1505,0.1042,0.0685,0.0659,0.0643,0.0546,0.0657,0.0906,0.0962,0.1014,0.0916,0.0491,0.049,0.0246,0.0244,0.0242]},{"header":{"parameterUnit":"m.s-1","parameterCategory":2,"la1":30.2991,"la2":30.254,"lo1":-89.0895,"lo2":-89.0444,"dy":0.0017,"dx":0.0017,"nx":28,"ny":28,"refTime":"2026-02-10T03:00:00:Z","depth":"0","parameterNumber":3,"parameterNumberName":"V-component_of_CURRENTS"},"data":[0,0,0,0,0,0,0,0,0,0,0,0,0,0,0,0,0,0,0,0,0,0,0,0,0,0,0,0,0,0,0,0,0,0,0,0,0,0,0,0,0,0,0,0,0,0,0,0,0,0,0,0,0,0,0,0,0,0,0.0385,0.0386,0,0.04,0.04,0.04,0.0375,0.0374,0.0373,0.0373,0.0376,0.0376,0.0377,0,0,0,0,0,0,0,0,0,0,0,0,0,0.0333,0.0334,0.0385,0.0386,0.0386,0.04,0.04,0.04,0.0375,0.0374,0.0373,0.0373,0.0375,0.0376,0.0377,0,0,0,0,0,0,0,0,0,0,0,0,0,0.035,0.0334,0.0385,0.0377,0.0377,0.04,0.04,0.04,0.0375,0.0374,0.0373,0.0372,0.0375,0.0376,0.0377,0.0401,0,0,0.038,0.038,0,0,0,0,0,0,0,0,0.0349,0.0351,0.0378,0.0378,0.0377,0.0387,0.0382,0.0401,0.0375,0.0373,0.0373,0.0372,0.0381,0.0381,0.0382,0.0402,0.0402,0.038,0.0381,0.0381,0.0381,0,0,0,0,0,0,0,0.0348,0.0351,0.0388,0.0378,0.0378,0.0372,0.0373,0.0385,0.038,0.0373,0.0372,0.0378,0.038,0.0382,0.0382,0.0402,0.038,0.0381,0.0382,0.0382,0.0443,0.0444,0,0,0,0,0,0,0.0352,0.035,0.0388,0.0389,0.0363,0.0374,0.0375,0.0383,0.038,0.0379,0.0379,0.0377,0.038,0.0381,0.0382,0.0402,0.0381,0.0382,0.0383,0.0442,0.0443,0.0445,0,0,0,0,0,0,0.0351,0.0356,0.0387,0.0371,0.0375,0.0376,0.0384,0.0383,0.0381,0.0384,0.0383,0.0377,0.038,0.0381,0.0396,0.0402,0.0382,0.0383,0.0441,0.0443,0.0444,0.0447,0,0,0,0,0,0,0.035,0.0355,0.0362,0.0372,0.0376,0.0406,0.0386,0.0384,0.0388,0.0385,0.0383,0.0383,0.0379,0.0395,0.0397,0.0403,0.0384,0.044,0.0442,0.0444,0.0446,0.0449,0.0451,0,0,0,0,0,0.0348,0.0368,0.0362,0.0366,0.0385,0.0407,0.0409,0.0404,0.0389,0.0396,0.0393,0.0382,0.0409,0.0396,0.0399,0.0405,0.0439,0.0441,0.0443,0.0445,0.0448,0.0451,0,0,0,0,0,0,0.0353,0.0368,0.0361,0.0385,0.0395,0.0404,0.0417,0.0406,0.0409,0.0404,0.0396,0.0397,0.0411,0.0415,0.0402,0.0431,0.0422,0.0425,0.0423,0.0426,0.0429,0.043,0.0385,0,0,0,0,0,0.0356,0.037,0.0383,0.04,0.0411,0.0411,0.0417,0.0412,0.0417,0.0416,0.0417,0.042,0.0426,0.043,0.044,0.0458,0.0481,0.0466,0.0469,0.0471,0.0475,0.0545,0.0554,0.0452,0.0452,0.0452,0,0,0.0359,0.0372,0.0377,0.0401,0.041,0.0416,0.0412,0.0428,0.0421,0.0419,0.0421,0.0431,0.0434,0.045,0.0458,0.0452,0.0507,0.0474,0.0475,0.0479,0.0548,0.0558,0.0567,0.0454,0.0454,0.0453,0,0,0.037,0.039,0.0399,0.0409,0.0426,0.0428,0.0431,0.0443,0.0441,0.0452,0.0443,0.0462,0.0473,0.0478,0.0479,0.0508,0.0519,0.0509,0.0522,0.0589,0.0598,0.0606,0.0623,0.0633,0.051,0.051,0.051,0,0.0367,0.0379,0.0405,0.0415,0.0419,0.0431,0.043,0.0438,0.0447,0.0456,0.0455,0.0487,0.0487,0.0503,0.0508,0.0513,0.0541,0.0504,0.0593,0.0602,0.061,0.0626,0.0636,0.0511,0.0511,0.0511,0.051,0,0.0374,0.0383,0.0397,0.0403,0.0417,0.0425,0.0438,0.0451,0.0455,0.0462,0.0493,0.051,0.0531,0.0533,0.0524,0.0576,0.0572,0.0588,0.0582,0.062,0.0634,0.0645,0.0511,0.0511,0.0511,0.0511,0,0,0.0347,0.0388,0.0387,0.0389,0.0407,0.0418,0.0428,0.0444,0.0461,0.0483,0.0516,0.0526,0.0551,0.0556,0.056,0.0611,0.0678,0.0623,0.0626,0.0634,0.0801,0.0747,0.0753,0.072,0.0723,0.0725,0.0777,0,0.0329,0.0344,0.0367,0.0368,0.0373,0.0398,0.0412,0.0432,0.0462,0.0508,0.0538,0.0575,0.0554,0.0579,0.0623,0.0688,0.0712,0.066,0.0768,0.077,0.0714,0.0767,0.0763,0.0806,0.0788,0.079,0.0791,0,0.0306,0.032,0.0324,0.0354,0.0362,0.0366,0.0403,0.042,0.0486,0.0518,0.0567,0.0605,0.067,0.066,0.0766,0.0741,0.0759,0.0795,0.0799,0.0758,0.0738,0.0771,0.0827,0.0804,0.0808,0.0807,0.0806,0,0.0259,0.0284,0.0286,0.0291,0.0332,0.0342,0.0364,0.042,0.0458,0.0538,0.0597,0.0664,0.0734,0.0789,0.0844,0.0826,0.0969,0.0955,0.0903,0.0897,0.0918,0.091,0.0963,0.1009,0.1009,0.1009,0.1009,0,0.0222,0.0221,0.0267,0.0266,0.0288,0.0318,0.0358,0.0398,0.0476,0.0548,0.0603,0.0689,0.0781,0.0867,0.0884,0.0936,0.0999,0.0914,0.0923,0.0914,0.0906,0.0905,0.0898,0.1011,0.101,0.101,0.101,0,0.0178,0.0198,0.0213,0.0255,0.0269,0.0288,0.0361,0.0407,0.0473,0.0578,0.0614,0.0747,0.0871,0.0923,0.1036,0.0996,0.1037,0.1023,0.0976,0.0977,0.0881,0.0874,0.0955,0.0963,0.0984,0.0983,0.0983,0,0.0155,0.016,0.0213,0.0238,0.026,0.0296,0.0337,0.0399,0.0459,0.0617,0.0681,0.0823,0.0939,0.1057,0.105,0.1064,0.1043,0.1001,0.0951,0.0883,0.0885,0.0889,0.0891,0.0974,0.0974,0.0973,0.0973,0,0.0136,0.0164,0.0198,0.0242,0.028,0.0332,0.0392,0.0438,0.0535,0.0631,0.0788,0.0896,0.1014,0.1078,0.1064,0.1044,0.0996,0.0984,0.0969,0.0923,0.0886,0.0894,0.0892,0.0968,0.0968,0.0969,0.0969,0.0969,0.0142,0.0171,0.0223,0.0262,0.0314,0.0376,0.0421,0.0504,0.0603,0.0772,0.0852,0.1031,0.1081,0.1097,0.1049,0.0934,0.0967,0.0887,0.0894,0.0912,0.0895,0.0838,0.0887,0.0887,0.0887,0.0887,0.0887,0,0.0147,0.019,0.0239,0.03,0.0357,0.0378,0.047,0.053,0.0652,0.083,0.0967,0.1103,0.1116,0.1088,0.0952,0.0868,0.0858,0.0831,0.0862,0.0876,0.088,0.0852,0.083,0.083,0.083,0.083,0.083,0.083,0.016,0.0207,0.023,0.0316,0.0367,0.0446,0.0499,0.0601,0.0728,0.0937,0.1075,0.118,0.1157,0.0994,0.086,0.0827,0.0831,0.0812,0.082,0.0823,0.0829,0.0835,0.0807,0.0777,0.0777,0.0828,0.0828,0.0829]}],[{"header":{"parameterUnit":"m.s-1","parameterCategory":2,"la1":30.2991,"la2":30.254,"lo1":-89.0895,"lo2":-89.0444,"dy":0.0017,"dx":0.0017,"nx":28,"ny":28,"refTime":"2026-02-10T03:00:00:Z","depth":"2","parameterNumber":2,"parameterNumberName":"U-component_of_CURRENTS"},"data":[0,0,0,0,0,0,0,0,0,0,0,0,0,0,0,0,0,0,0,0,0,0,0,0,0,0,0,0,0,0,0,0,0,0,0,0,0,0,0,0,0,0,0,0,0,0,0,0,0,0,0,0,0,0,0,0,0,0,0.0821,0.0821,0,0.0832,0.0832,0.0832,0.0816,0.0815,0.0815,0.0814,0.0807,0.0807,0.0808,0,0,0,0,0,0,0,0,0,0,0,0,0,0.0789,0.0789,0.0821,0.0821,0.0821,0.0832,0.0832,0.0832,0.0816,0.0815,0.0815,0.0814,0.0807,0.0807,0.0808,0,0,0,0,0,0,0,0,0,0,0,0,0,0.0801,0.0789,0.0821,0.0815,0.0814,0.0832,0.0832,0.0832,0.0816,0.0815,0.0814,0.0814,0.0807,0.0807,0.0808,0.0826,0,0,0.0809,0.0809,0,0,0,0,0,0,0,0,0.08,0.0802,0.0815,0.0815,0.0815,0.0822,0.0818,0.0829,0.0816,0.0815,0.0814,0.0813,0.0811,0.0811,0.0815,0.0825,0.0825,0.0809,0.0809,0.0809,0.081,0,0,0,0,0,0,0,0.0799,0.0801,0.0824,0.0816,0.0815,0.0813,0.0813,0.082,0.0816,0.0815,0.0814,0.0816,0.0811,0.0814,0.0814,0.0825,0.0809,0.0809,0.081,0.081,0.0891,0.0893,0,0,0,0,0,0,0.08,0.0801,0.0824,0.0825,0.0806,0.0814,0.0815,0.082,0.0817,0.0816,0.0817,0.0815,0.0814,0.0814,0.0814,0.0834,0.0809,0.081,0.081,0.0889,0.0891,0.0893,0,0,0,0,0,0,0.0799,0.0802,0.0824,0.0813,0.0816,0.0815,0.0821,0.0821,0.0836,0.0819,0.0817,0.0834,0.0813,0.0813,0.0841,0.0833,0.081,0.081,0.0887,0.089,0.0892,0.0875,0,0,0,0,0,0,0.0798,0.0802,0.0807,0.0813,0.0816,0.0847,0.0822,0.0822,0.0838,0.0837,0.0833,0.0831,0.0813,0.084,0.0841,0.0834,0.0811,0.0884,0.0888,0.0892,0.0873,0.0877,0.088,0,0,0,0,0,0.0797,0.079,0.0808,0.0811,0.0824,0.0848,0.085,0.0846,0.084,0.0855,0.0858,0.0831,0.0863,0.0843,0.0843,0.0835,0.0883,0.0887,0.0891,0.0872,0.0876,0.088,0,0,0,0,0,0,0.0769,0.0789,0.0807,0.0806,0.0839,0.0846,0.0847,0.086,0.0874,0.0871,0.0857,0.0856,0.0888,0.0877,0.0855,0.0877,0.0869,0.0873,0.0854,0.0858,0.0861,0.0913,0.0811,0,0,0,0,0,0.0772,0.0779,0.081,0.0815,0.0829,0.085,0.0859,0.0869,0.0881,0.0886,0.0885,0.0889,0.0906,0.0894,0.0918,0.0917,0.0965,0.0918,0.0921,0.0923,0.0971,0.1034,0.1047,0.0907,0.0907,0.0907,0,0,0.0765,0.0776,0.0782,0.0812,0.0829,0.0848,0.0852,0.0874,0.0892,0.0884,0.09,0.0918,0.0922,0.0932,0.094,0.0913,0.0988,0.0929,0.093,0.0978,0.104,0.1054,0.1066,0.091,0.091,0.0909,0,0,0.0756,0.0767,0.0779,0.0802,0.0839,0.0852,0.0867,0.0895,0.0909,0.0952,0.0944,0.0972,0.0985,0.0977,0.0977,0.1021,0.1029,0.1011,0.1032,0.109,0.1102,0.1114,0.1182,0.12,0.0979,0.0979,0.0979,0,0.0764,0.0774,0.0789,0.0805,0.0821,0.0856,0.0881,0.0898,0.0935,0.0956,0.0964,0.1035,0.1016,0.1037,0.1038,0.1027,0.1071,0.0999,0.1093,0.1106,0.1117,0.1185,0.1205,0.0979,0.0979,0.0979,0.0979,0,0.076,0.0781,0.0785,0.082,0.0836,0.0865,0.0894,0.0915,0.0948,0.0983,0.1059,0.1077,0.1113,0.1097,0.1075,0.1129,0.114,0.111,0.1075,0.113,0.1199,0.1219,0.0979,0.0979,0.0979,0.0979,0,0,0.0784,0.079,0.08,0.0826,0.0853,0.0876,0.0888,0.0937,0.0972,0.1035,0.1107,0.1133,0.1169,0.1178,0.1157,0.1194,0.1282,0.1177,0.118,0.1234,0.1432,0.123,0.1233,0.1257,0.1261,0.1264,0.1442,0,0.0808,0.0827,0.0824,0.0866,0.0888,0.0903,0.0917,0.0955,0.1009,0.1079,0.1139,0.122,0.1186,0.1221,0.1249,0.128,0.1339,0.1239,0.1385,0.1391,0.1192,0.125,0.1122,0.1251,0.1463,0.1466,0.1468,0,0.0832,0.084,0.0866,0.0903,0.0916,0.0941,0.0986,0.1015,0.1088,0.1136,0.1221,0.1286,0.1353,0.1342,0.1451,0.1386,0.1431,0.1467,0.1473,0.1316,0.1226,0.1236,0.1281,0.1503,0.15,0.1498,0.1496,0,0.0852,0.089,0.091,0.092,0.0946,0.0969,0.0999,0.1045,0.1089,0.1206,0.1267,0.1368,0.143,0.152,0.1529,0.1522,0.1658,0.1648,0.1537,0.1524,0.1464,0.1436,0.1792,0.1792,0.1791,0.1791,0.179,0,0.0881,0.0921,0.093,0.0943,0.0996,0.1006,0.108,0.1108,0.1184,0.125,0.1317,0.1383,0.1482,0.1537,0.1584,0.1579,0.1693,0.1583,0.156,0.1449,0.1419,0.1675,0.1659,0.1797,0.1796,0.1795,0.1793,0,0.0922,0.0916,0.0962,0.0988,0.1007,0.1055,0.1129,0.1171,0.123,0.1322,0.1373,0.1428,0.1484,0.1542,0.1663,0.1607,0.1659,0.1639,0.1488,0.144,0.1505,0.1487,0.1609,0.1603,0.1598,0.1594,0.1591,0,0.095,0.0962,0.0999,0.1007,0.1033,0.11,0.1127,0.1199,0.1247,0.133,0.137,0.1444,0.1455,0.1494,0.1458,0.1505,0.1579,0.1374,0.1327,0.1524,0.149,0.1479,0.1467,0.1277,0.1271,0.1267,0.1263,0,0.1016,0.1022,0.1042,0.104,0.1075,0.1122,0.1184,0.1223,0.1292,0.1318,0.1352,0.1376,0.1382,0.1299,0.1258,0.1266,0.1343,0.1274,0.1566,0.1275,0.1205,0.1172,0.1174,0.1222,0.1226,0.1229,0.1231,0.1233,0.1083,0.11,0.1089,0.1091,0.1107,0.1124,0.1155,0.1179,0.121,0.1221,0.1275,0.1218,0.1203,0.1059,0.1011,0.0962,0.1097,0.1057,0.1076,0.1099,0.096,0.0877,0.0812,0.0814,0.0815,0.0817,0.0818,0,0.114,0.1143,0.113,0.1118,0.1089,0.1118,0.1161,0.1127,0.1104,0.1095,0.1085,0.0912,0.0826,0.0834,0.07,0.0653,0.0705,0.0615,0.0706,0.0745,0.0781,0.0631,0.0394,0.0393,0.0392,0.0391,0,0,0.118,0.1151,0.111,0.1074,0.1071,0.108,0.1091,0.0974,0.0935,0.0816,0.0755,0.08,0.0795,0.0591,0.0542,0.0457,0.0603,0.0418,0.0758,0.0906,0.0941,0.1029,0.0837,0,0,0,0,0]},{"header":{"parameterUnit":"m.s-1","parameterCategory":2,"la1":30.2991,"la2":30.254,"lo1":-89.0895,"lo2":-89.0444,"dy":0.0017,"dx":0.0017,"nx":28,"ny":28,"refTime":"2026-02-10T03:00:00:Z","depth":"2","parameterNumber":3,"parameterNumberName":"V-component_of_CURRENTS"},"data":[0,0,0,0,0,0,0,0,0,0,0,0,0,0,0,0,0,0,0,0,0,0,0,0,0,0,0,0,0,0,0,0,0,0,0,0,0,0,0,0,0,0,0,0,0,0,0,0,0,0,0,0,0,0,0,0,0,0,0.0058,0.0058,0,0.0099,0.0099,0.01,0.0119,0.0119,0.0119,0.0119,0.0139,0.0139,0.014,0,0,0,0,0,0,0,0,0,0,0,0,0,0.0014,0.0014,0.0058,0.0058,0.0059,0.0099,0.0099,0.01,0.0119,0.0119,0.0119,0.0119,0.0139,0.0139,0.014,0,0,0,0,0,0,0,0,0,0,0,0,0,0.0041,0.0014,0.0058,0.0073,0.0075,0.0099,0.0099,0.01,0.0119,0.0119,0.0119,0.0119,0.0138,0.0139,0.014,0.0144,0,0,0.0142,0.0143,0,0,0,0,0,0,0,0,0.0039,0.0043,0.0071,0.0072,0.0075,0.0104,0.0091,0.0114,0.0119,0.0102,0.0119,0.0119,0.0125,0.0127,0.0135,0.0145,0.0146,0.0142,0.0143,0.0143,0.0143,0,0,0,0,0,0,0,0.0037,0.0041,0.0074,0.0071,0.0074,0.0085,0.0088,0.0096,0.0113,0.0104,0.0105,0.011,0.0126,0.0134,0.0135,0.0147,0.0142,0.0143,0.0144,0.0144,0.0169,0.0169,0,0,0,0,0,0,0.0032,0.0039,0.0072,0.0075,0.0057,0.0085,0.009,0.0094,0.0113,0.0116,0.011,0.0111,0.0133,0.0134,0.0136,0.014,0.0143,0.0144,0.0144,0.0168,0.0169,0.0169,0,0,0,0,0,0,0.0031,0.0035,0.0071,0.0058,0.0064,0.0086,0.0091,0.0095,0.0105,0.0118,0.0121,0.0116,0.0133,0.0135,0.0143,0.0141,0.0144,0.0145,0.0168,0.0168,0.0169,0.0149,0,0,0,0,0,0,0.003,0.0034,0.0036,0.0058,0.0064,0.0088,0.0092,0.0096,0.0108,0.0109,0.0124,0.0126,0.0133,0.0142,0.0144,0.0142,0.0146,0.0168,0.0168,0.0169,0.015,0.0149,0.0148,0,0,0,0,0,0.0028,0.0036,0.0036,0.004,0.0066,0.0089,0.0093,0.0109,0.0108,0.0116,0.0122,0.0125,0.0146,0.0143,0.0145,0.0143,0.0168,0.0168,0.0169,0.015,0.0149,0.0148,0,0,0,0,0,0,0.0023,0.004,0.004,0.0053,0.0069,0.0092,0.0102,0.0108,0.012,0.0118,0.0127,0.013,0.0138,0.0144,0.0141,0.0153,0.0158,0.0159,0.0143,0.0142,0.0141,0.017,0.0146,0,0,0,0,0,0.002,0.0028,0.0046,0.0056,0.0063,0.0079,0.009,0.0099,0.0112,0.0118,0.0126,0.0134,0.0141,0.0144,0.0155,0.0159,0.0187,0.016,0.016,0.0159,0.0185,0.0224,0.0229,0.017,0.017,0.017,0,0,0.0023,0.0032,0.0037,0.0055,0.0067,0.0083,0.0086,0.0102,0.0115,0.0117,0.0132,0.0133,0.0143,0.015,0.0153,0.0154,0.0185,0.0159,0.0158,0.0186,0.0225,0.0231,0.0236,0.017,0.017,0.017,0,0,0.0036,0.0037,0.0049,0.0062,0.0078,0.0086,0.009,0.0109,0.0116,0.0128,0.013,0.0137,0.0146,0.0156,0.016,0.0164,0.0182,0.0156,0.0173,0.0209,0.0215,0.022,0.0241,0.0249,0.0153,0.0153,0.0153,0,0.0039,0.0055,0.0058,0.0074,0.0089,0.0087,0.0108,0.0113,0.0132,0.015,0.0133,0.0166,0.0156,0.0183,0.0171,0.0164,0.0184,0.0171,0.0209,0.0215,0.0221,0.0242,0.025,0.0152,0.0152,0.0152,0.0152,0,0.0069,0.0076,0.0085,0.01,0.0116,0.0131,0.014,0.0153,0.0153,0.0167,0.0194,0.0184,0.0218,0.0193,0.0176,0.0208,0.0207,0.0204,0.0211,0.0226,0.0246,0.0256,0.0151,0.0151,0.0151,0.0151,0,0,0.0086,0.0102,0.0104,0.0118,0.0131,0.0152,0.0168,0.0199,0.0237,0.0228,0.0286,0.0256,0.0266,0.0272,0.0252,0.0257,0.028,0.0239,0.0241,0.0261,0.0354,0.0296,0.03,0.0281,0.0283,0.0284,0.0344,0,0.0107,0.014,0.0143,0.0175,0.0193,0.0202,0.023,0.0257,0.0275,0.0327,0.0318,0.0358,0.0291,0.031,0.0304,0.03,0.0308,0.0265,0.0338,0.0341,0.0288,0.0311,0.0306,0.0354,0.0353,0.0354,0.0355,0,0.0136,0.0153,0.0187,0.0225,0.0238,0.0256,0.032,0.0344,0.0402,0.0426,0.0458,0.0471,0.0482,0.0427,0.0434,0.0408,0.0387,0.0368,0.037,0.0339,0.0301,0.0345,0.0371,0.0371,0.037,0.0369,0.0368,0,0.0155,0.0186,0.0214,0.0225,0.0267,0.0292,0.0317,0.0375,0.0421,0.0496,0.0558,0.0575,0.0606,0.0583,0.0517,0.0494,0.0522,0.0498,0.043,0.0426,0.0451,0.0445,0.0525,0.0525,0.0525,0.0525,0.0525,0,0.0176,0.0196,0.0224,0.0239,0.03,0.0317,0.0389,0.043,0.0504,0.0588,0.061,0.068,0.0647,0.0652,0.058,0.0526,0.0579,0.0452,0.0446,0.0439,0.0431,0.0474,0.0467,0.0527,0.0526,0.0526,0.0526,0,0.0184,0.0196,0.0239,0.0287,0.0305,0.035,0.0422,0.049,0.055,0.0666,0.0702,0.0775,0.0784,0.0729,0.0701,0.0616,0.0564,0.053,0.0508,0.0496,0.0432,0.0424,0.0495,0.0494,0.0493,0.0492,0.0491,0,0.0188,0.0208,0.0276,0.0317,0.0334,0.0392,0.0451,0.0508,0.058,0.0719,0.0789,0.0846,0.0887,0.081,0.0689,0.0587,0.0563,0.0502,0.0454,0.0447,0.0434,0.0427,0.042,0.048,0.0479,0.0479,0.0478,0,0.0206,0.0232,0.0282,0.0355,0.0415,0.0489,0.0561,0.0626,0.0719,0.0812,0.0924,0.0963,0.0915,0.0814,0.0663,0.0582,0.0514,0.0483,0.0527,0.0465,0.0432,0.0418,0.0413,0.0472,0.0473,0.0473,0.0474,0.0474,0.023,0.0283,0.0344,0.0415,0.0485,0.0574,0.0645,0.0732,0.0838,0.0971,0.0987,0.1013,0.0919,0.0709,0.0593,0.0465,0.0481,0.0419,0.0423,0.0427,0.0392,0.0356,0.0375,0.0376,0.0376,0.0376,0.0376,0,0.0266,0.0321,0.0396,0.0495,0.0572,0.0594,0.0718,0.0794,0.0917,0.0979,0.1038,0.0905,0.0806,0.0682,0.0492,0.0384,0.0387,0.034,0.0374,0.0381,0.0387,0.035,0.0323,0.0322,0.0322,0.0321,0,0,0.0293,0.0385,0.0427,0.0545,0.0606,0.0705,0.0777,0.0896,0.0941,0.0984,0.0955,0.0947,0.08,0.0642,0.0521,0.0419,0.0417,0.0391,0.0445,0.0506,0.0513,0.0444,0.0395,0,0,0,0,0]}],[{"header":{"parameterUnit":"m.s-1","parameterCategory":2,"la1":30.2991,"la2":30.254,"lo1":-89.0895,"lo2":-89.0444,"dy":0.0017,"dx":0.0017,"nx":28,"ny":28,"refTime":"2026-02-10T03:00:00:Z","depth":"4","parameterNumber":2,"parameterNumberName":"U-component_of_CURRENTS"},"data":[0,0,0,0,0,0,0,0,0,0,0,0,0,0,0,0,0,0,0,0,0,0,0,0,0,0,0,0,0,0,0,0,0,0,0,0,0,0,0,0,0,0,0,0,0,0,0,0,0,0,0,0,0,0,0,0,0,0,0.0258,0.0259,0,0.0302,0.0302,0.0302,0.0316,0.0316,0.0316,0.0316,0.0324,0.0324,0.0324,0,0,0,0,0,0,0,0,0,0,0,0,0,0.0211,0.0211,0.0258,0.0259,0.026,0.0302,0.0302,0.0302,0.0316,0.0316,0.0316,0.0316,0.0324,0.0324,0.0324,0,0,0,0,0,0,0,0,0,0,0,0,0,0.0238,0.0211,0.0258,0.0273,0.0276,0.0301,0.0302,0.0302,0.0316,0.0316,0.0316,0.0316,0.0324,0.0324,0.0324,0.0325,0,0,0.0325,0.0325,0,0,0,0,0,0,0,0,0.0236,0.0239,0.027,0.0272,0.0275,0.0306,0.0288,0.0309,0.0316,0.0298,0.0316,0.0316,0.0316,0.0317,0.0322,0.0325,0.0325,0.0325,0.0325,0.0325,0.0325,0,0,0,0,0,0,0,0.0234,0.0237,0.0272,0.0271,0.0274,0.0287,0.029,0.0292,0.0303,0.0299,0.0301,0.031,0.0317,0.0322,0.0322,0.0325,0.0325,0.0325,0.0326,0.0326,0.0373,0.0374,0,0,0,0,0,0,0.0233,0.0236,0.0271,0.0274,0.0258,0.0288,0.0291,0.0294,0.0304,0.0307,0.031,0.0311,0.0321,0.0322,0.0322,0.0334,0.0325,0.0326,0.0326,0.0371,0.0373,0.0374,0,0,0,0,0,0,0.0232,0.0235,0.0269,0.0258,0.0264,0.0288,0.0291,0.0294,0.0313,0.0313,0.0315,0.0327,0.0321,0.0322,0.0333,0.0334,0.0326,0.0326,0.037,0.0372,0.0373,0.035,0,0,0,0,0,0,0.023,0.0234,0.0237,0.0258,0.0265,0.0292,0.0291,0.0295,0.0319,0.0321,0.0328,0.0328,0.0321,0.0333,0.0333,0.0334,0.0326,0.0369,0.0371,0.0373,0.0349,0.035,0.0351,0,0,0,0,0,0.0228,0.0226,0.0237,0.0242,0.0267,0.0293,0.0298,0.0313,0.032,0.033,0.0334,0.0329,0.0346,0.0333,0.0334,0.0335,0.0368,0.037,0.0373,0.0349,0.035,0.0351,0,0,0,0,0,0,0.0201,0.0228,0.024,0.0245,0.0274,0.0297,0.0304,0.0323,0.0335,0.0335,0.0335,0.0336,0.0347,0.0353,0.0339,0.036,0.036,0.0362,0.0341,0.0343,0.0344,0.0348,0.0326,0,0,0,0,0,0.0199,0.0207,0.0239,0.0245,0.0258,0.0286,0.03,0.0316,0.0331,0.0337,0.0343,0.0352,0.0357,0.0359,0.0366,0.0373,0.0395,0.038,0.0381,0.0381,0.0389,0.0443,0.0449,0.0382,0.0382,0.0382,0,0,0.0189,0.0207,0.021,0.0241,0.0259,0.027,0.0294,0.0318,0.0323,0.0335,0.034,0.0355,0.0363,0.0368,0.0374,0.0371,0.0409,0.0385,0.0384,0.0392,0.0446,0.0453,0.0458,0.0384,0.0383,0.0383,0,0,0.0171,0.0191,0.0192,0.0212,0.0248,0.0267,0.0279,0.0312,0.0324,0.0337,0.0347,0.0373,0.0374,0.0386,0.0388,0.0407,0.0416,0.0408,0.0409,0.0461,0.0467,0.0472,0.0486,0.0492,0.0405,0.0405,0.0405,0,0.0158,0.0163,0.0197,0.0202,0.0216,0.0265,0.027,0.0287,0.0319,0.0334,0.0336,0.0375,0.0383,0.0399,0.0403,0.0408,0.0427,0.0394,0.0461,0.0467,0.0473,0.0486,0.0494,0.0404,0.0404,0.0404,0.0404,0,0.0144,0.0146,0.0148,0.0168,0.019,0.0204,0.0237,0.0263,0.0288,0.0309,0.0344,0.0367,0.0396,0.0401,0.04,0.0445,0.044,0.0456,0.0451,0.0478,0.049,0.0498,0.0403,0.0403,0.0403,0.0403,0,0,0.0119,0.0133,0.0134,0.0136,0.0174,0.0191,0.0208,0.0245,0.0273,0.03,0.0332,0.0353,0.039,0.04,0.0418,0.0459,0.0507,0.0471,0.0474,0.0473,0.0596,0.0515,0.0516,0.0533,0.0535,0.0537,0.0578,0,0.0099,0.0092,0.011,0.0109,0.0111,0.0156,0.0176,0.0216,0.0258,0.0301,0.0339,0.038,0.038,0.0412,0.0447,0.0514,0.0533,0.0493,0.0582,0.0584,0.05,0.0525,0.0543,0.0585,0.0587,0.0588,0.0589,0,0.0085,0.0081,0.0074,0.0089,0.0097,0.0111,0.0172,0.0197,0.0266,0.0303,0.0351,0.039,0.0455,0.0456,0.0556,0.0531,0.0555,0.0591,0.0594,0.0536,0.0519,0.0562,0.0605,0.0604,0.0603,0.0602,0.0601,0,0.0063,0.0058,0.0053,0.0056,0.0084,0.0101,0.0133,0.0204,0.0247,0.0323,0.0376,0.0435,0.049,0.0548,0.0605,0.0598,0.0704,0.0707,0.0641,0.0634,0.0704,0.0698,0.0757,0.0757,0.0757,0.0757,0.0757,0,0.004,0.003,0.0044,0.004,0.006,0.0089,0.0138,0.0186,0.0268,0.0326,0.0386,0.044,0.0522,0.0582,0.0621,0.0653,0.0717,0.0644,0.0648,0.0689,0.0682,0.0708,0.0702,0.0758,0.0758,0.0758,0.0757,0,0.0013,0.002,0.0015,0.0037,0.0051,0.0074,0.0145,0.0183,0.0273,0.0355,0.0388,0.0472,0.0552,0.0605,0.0697,0.067,0.0718,0.0697,0.0716,0.072,0.0604,0.0597,0.0648,0.0645,0.0643,0.0642,0.064,0,-0.0006,-0.0011,0.0014,0.0029,0.004,0.0077,0.0109,0.0185,0.023,0.0369,0.04,0.0494,0.0539,0.0607,0.0651,0.0697,0.0679,0.0673,0.0653,0.0599,0.0598,0.0593,0.0589,0.0637,0.0637,0.0636,0.0636,0,-0.0045,-0.0025,-0.0016,0.0021,0.0049,0.0068,0.0116,0.015,0.0245,0.0327,0.0418,0.0467,0.0526,0.0573,0.0591,0.0624,0.0677,0.0653,0.0657,0.0637,0.0587,0.0587,0.0584,0.0629,0.063,0.063,0.0631,0,-0.0056,-0.0049,-0.0018,0.0015,0.0048,0.0061,0.0081,0.0134,0.0195,0.0341,0.0357,0.0461,0.0522,0.0533,0.0567,0.058,0.0573,0.0545,0.0555,0.0563,0.0512,0.0434,0.0438,0,0,0,0,0,-0.0069,-0.0059,-0.0033,0.0005,0.0036,0.0047,0.0091,0.0113,0.0197,0.0251,0.0314,0.0375,0.0434,0.047,0.0468,0.0507,0.0557,0.0498,0.0525,0.0591,0.0598,0.0545,0,0,0,0,0,0,-0.0071,-0.0052,-0.0039,-0.001,0.0007,0.0029,0.0048,0.0094,0.0128,0.0221,0.0258,0.0327,0.0388,0.0442,0.0457,0.0466,0.0466,0.055,0.0548,0.0586,0.0593,0.06,0.0548,0,0,0,0,0]},{"header":{"parameterUnit":"m.s-1","parameterCategory":2,"la1":30.2991,"la2":30.254,"lo1":-89.0895,"lo2":-89.0444,"dy":0.0017,"dx":0.0017,"nx":28,"ny":28,"refTime":"2026-02-10T03:00:00:Z","depth":"4","parameterNumber":3,"parameterNumberName":"V-component_of_CURRENTS"},"data":[0,0,0,0,0,0,0,0,0,0,0,0,0,0,0,0,0,0,0,0,0,0,0,0,0,0,0,0,0,0,0,0,0,0,0,0,0,0,0,0,0,0,0,0,0,0,0,0,0,0,0,0,0,0,0,0,0,0,0.0025,0.0026,0,0.0043,0.0044,0.0044,0.007,0.007,0.0071,0.0071,0.0098,0.0099,0.0099,0,0,0,0,0,0,0,0,0,0,0,0,0,0.0015,0.0015,0.0025,0.0026,0.0026,0.0043,0.0044,0.0044,0.007,0.007,0.0071,0.0071,0.0098,0.0098,0.0099,0,0,0,0,0,0,0,0,0,0,0,0,0,0.0025,0.0015,0.0025,0.004,0.0042,0.0043,0.0044,0.0044,0.007,0.007,0.0071,0.0071,0.0098,0.0098,0.0099,0.009,0,0,0.0101,0.0101,0,0,0,0,0,0,0,0,0.0025,0.0026,0.0038,0.0039,0.0041,0.0054,0.005,0.006,0.0069,0.006,0.0071,0.0072,0.0084,0.0085,0.0088,0.0092,0.0093,0.0101,0.0101,0.0101,0.0101,0,0,0,0,0,0,0,0.0024,0.0025,0.0033,0.0038,0.004,0.0047,0.0049,0.0052,0.0069,0.0061,0.0062,0.0063,0.0085,0.0087,0.0089,0.0093,0.0101,0.0101,0.0101,0.0102,0.0108,0.0108,0,0,0,0,0,0,0.002,0.0024,0.0033,0.0034,0.0033,0.0046,0.0049,0.005,0.0069,0.0072,0.0063,0.0064,0.0086,0.0088,0.009,0.0108,0.0101,0.0102,0.0102,0.0108,0.0108,0.0108,0,0,0,0,0,0,0.002,0.002,0.0032,0.0029,0.0031,0.0046,0.0047,0.005,0.0055,0.007,0.0074,0.0065,0.0087,0.0089,0.0095,0.0108,0.0102,0.0102,0.0108,0.0108,0.0108,0.0127,0,0,0,0,0,0,0.0019,0.002,0.002,0.0029,0.0031,0.0038,0.0046,0.005,0.0054,0.0057,0.0073,0.0076,0.0087,0.0094,0.0095,0.0109,0.0103,0.0108,0.0108,0.0108,0.0127,0.0127,0.0128,0,0,0,0,0,0.0019,0.0022,0.002,0.0021,0.003,0.0038,0.004,0.0052,0.0054,0.0059,0.0066,0.0076,0.0093,0.0094,0.0096,0.011,0.0109,0.0108,0.0108,0.0126,0.0127,0.0128,0,0,0,0,0,0,0.0022,0.0025,0.0023,0.0028,0.0032,0.0042,0.0047,0.0049,0.0058,0.006,0.0072,0.0075,0.0085,0.0088,0.0088,0.0109,0.0103,0.0103,0.0116,0.0117,0.0118,0.0131,0.0103,0,0,0,0,0,0.002,0.002,0.0024,0.0027,0.0028,0.0034,0.0038,0.0044,0.0051,0.0056,0.0066,0.0075,0.0084,0.0093,0.0098,0.0107,0.0099,0.0116,0.0117,0.0118,0.0128,0.0117,0.0118,0.0106,0.0106,0.0106,0,0,0.0023,0.0023,0.0025,0.0027,0.0031,0.0048,0.0039,0.0044,0.0064,0.0056,0.0082,0.0075,0.0084,0.0098,0.0104,0.0105,0.0114,0.0118,0.0119,0.0129,0.0117,0.0118,0.0119,0.0106,0.0106,0.0106,0,0,0.0039,0.0028,0.0039,0.0045,0.0048,0.0051,0.0052,0.0059,0.0067,0.0079,0.0081,0.008,0.0096,0.0107,0.0114,0.0119,0.0114,0.0119,0.0143,0.0131,0.0132,0.0133,0.0113,0.0112,0.0125,0.0125,0.0125,0,0.0045,0.0061,0.0044,0.0061,0.0074,0.0056,0.0081,0.0085,0.0094,0.01,0.0092,0.01,0.0105,0.0124,0.0131,0.0124,0.0111,0.0141,0.0133,0.0134,0.0135,0.0114,0.0112,0.0126,0.0126,0.0126,0.0126,0,0.0077,0.009,0.0097,0.0114,0.0121,0.0135,0.0138,0.0141,0.0138,0.0142,0.0145,0.0136,0.0143,0.0141,0.0144,0.0152,0.0138,0.0131,0.0134,0.0137,0.0114,0.0113,0.0127,0.0127,0.0127,0.0127,0,0,0.0099,0.0118,0.0123,0.0138,0.0152,0.0159,0.0182,0.0197,0.0206,0.0198,0.0205,0.0213,0.0189,0.0195,0.0182,0.0176,0.0166,0.0161,0.016,0.0146,0.0132,0.0136,0.0134,0.0156,0.0156,0.0156,0.011,0,0.0136,0.0175,0.0178,0.0218,0.0239,0.0232,0.0256,0.026,0.0254,0.025,0.0227,0.0228,0.0216,0.0209,0.02,0.0179,0.0164,0.0178,0.0126,0.0125,0.0133,0.0134,0.0156,0.0109,0.0108,0.0108,0.0108,0,0.0179,0.0195,0.0242,0.0266,0.0275,0.0299,0.0316,0.0333,0.0321,0.0312,0.0295,0.0267,0.026,0.0234,0.0204,0.0214,0.0177,0.0152,0.0149,0.015,0.0127,0.0106,0.0105,0.0105,0.0105,0.0105,0.0105,0,0.0205,0.0244,0.028,0.0292,0.0315,0.0337,0.0352,0.0357,0.037,0.0348,0.0341,0.0313,0.0292,0.0257,0.0213,0.0208,0.0164,0.0147,0.011,0.0109,0.011,0.0109,0.0112,0.0112,0.0112,0.0112,0.0112,0,0.0246,0.0274,0.0295,0.0314,0.0351,0.0364,0.04,0.0401,0.0405,0.0414,0.0375,0.0359,0.0297,0.0259,0.0218,0.0169,0.0169,0.0118,0.0102,0.0116,0.0117,0.0108,0.0108,0.011,0.011,0.0111,0.0111,0,0.0271,0.0289,0.0322,0.0351,0.0367,0.0391,0.0436,0.045,0.0458,0.0462,0.0457,0.0398,0.0354,0.0294,0.0223,0.0178,0.0131,0.0104,0.0124,0.0109,0.0076,0.0077,0.0059,0.0059,0.0059,0.0059,0.0059,0,0.0284,0.0306,0.0342,0.0355,0.0374,0.0416,0.0442,0.0472,0.0487,0.0486,0.0479,0.0433,0.0389,0.0296,0.0226,0.0146,0.0126,0.0088,0.0084,0.0086,0.0073,0.0074,0.0076,0.0059,0.0059,0.0059,0.0058,0,0.0295,0.0309,0.0328,0.0362,0.0394,0.0436,0.048,0.0495,0.0521,0.0528,0.0502,0.0445,0.0378,0.0293,0.0229,0.0168,0.0114,0.0087,0.0086,0.0081,0.0085,0.0072,0.0074,0.0058,0.0058,0.0058,0.0058,0,0.029,0.0305,0.0329,0.036,0.04,0.0442,0.0469,0.0494,0.0521,0.0526,0.0511,0.0449,0.0405,0.0303,0.025,0.0194,0.0168,0.0133,0.0129,0.0129,0.0165,0.0182,0.0176,0,0,0,0,0,0.0282,0.0301,0.0323,0.0361,0.0402,0.044,0.0482,0.0504,0.0532,0.0521,0.0526,0.0472,0.0376,0.0321,0.0267,0.0235,0.0151,0.0166,0.0107,0.0056,0.0057,0.0089,0,0,0,0,0,0,0.0273,0.0298,0.0317,0.036,0.0394,0.0453,0.0487,0.0506,0.0504,0.0514,0.0465,0.0453,0.036,0.0421,0.0268,0.0248,0.0199,0.0128,0.0126,0.0056,0.0057,0.0057,0.009,0,0,0,0,0]}]]